Location: Beneden-Haastrecht
(52.0012°N, 4.7557°E)
Time: 02:26:34
(UTC+00:00)

Meteor 2-21 Rocket - Pass Details

Date: 24 October 2020
Orbit: 935 x 968 km, 82.5° (Epoch: 27 November)

Event Time Altitude Azimuth Distance (km) Brightness Sun altitude
Rises 17:25:38 0° 349° (N) 3,668 7.6 -9.6°
Reaches altitude 10° 17:28:10 10° 351° (N) 2,714 6.9 -10.0°
Maximum altitude 17:34:23 76° 78° (ENE) 993 4.4 -10.9°
Drops below altitude 10° 17:40:31 10° 164° (SSE) 2,674 6.7 -11.9°
Sets 17:43:00 0° 166° (SSE) 3,610 7.4 -12.2°
